Year,Month,Day,Hour,Minute,Value (Times are PST for temperature in C)
2016,07,06,00,00,11.60
2016,07,06,00,01,11.60
2016,07,06,00,02,11.60
2016,07,06,00,03,11.50
2016,07,06,00,04,11.50
2016,07,06,00,05,11.50
2016,07,06,00,06,11.40
2016,07,06,00,07,11.40
2016,07,06,00,08,11.40
2016,07,06,00,09,11.30
2016,07,06,00,10,11.30
2016,07,06,00,11,11.30
2016,07,06,00,12,11.30
2016,07,06,00,13,11.20
2016,07,06,00,14,11.20
2016,07,06,00,15,11.20
2016,07,06,00,16,11.20
2016,07,06,00,17,11.20
2016,07,06,00,18,11.10
2016,07,06,00,19,11.10
2016,07,06,00,20,11.10
2016,07,06,00,21,11.10
2016,07,06,00,22,11.00
2016,07,06,00,23,11.00
2016,07,06,00,24,11.00
2016,07,06,00,25,10.90
2016,07,06,00,26,10.90
2016,07,06,00,27,10.90
2016,07,06,00,28,10.90
2016,07,06,00,29,10.90
2016,07,06,00,30,10.80
2016,07,06,00,31,10.80
2016,07,06,00,32,10.80
2016,07,06,00,33,10.80
2016,07,06,00,34,10.80
2016,07,06,00,35,10.80
2016,07,06,00,36,10.80
2016,07,06,00,37,10.80
2016,07,06,00,38,10.70
2016,07,06,00,39,10.70
2016,07,06,00,40,10.70
2016,07,06,00,41,10.70
2016,07,06,00,42,10.70
2016,07,06,00,43,10.70
2016,07,06,00,44,10.70
2016,07,06,00,45,10.70
2016,07,06,00,46,10.70
2016,07,06,00,47,10.70
2016,07,06,00,48,10.70
2016,07,06,00,49,10.70
2016,07,06,00,50,10.70
2016,07,06,00,51,10.70
2016,07,06,00,52,10.70
2016,07,06,00,53,10.70
2016,07,06,00,54,10.60
2016,07,06,00,55,10.60
2016,07,06,00,56,10.60
2016,07,06,00,57,10.60
2016,07,06,00,58,10.60
2016,07,06,00,59,10.60
2016,07,06,01,00,10.60
2016,07,06,01,01,10.50
2016,07,06,01,02,10.50
2016,07,06,01,03,10.50
2016,07,06,01,04,10.50
2016,07,06,01,05,10.50
2016,07,06,01,06,10.50
2016,07,06,01,07,10.50
2016,07,06,01,08,10.50
2016,07,06,01,09,10.50
2016,07,06,01,10,10.50
2016,07,06,01,11,10.50
2016,07,06,01,12,10.40
2016,07,06,01,13,10.40
2016,07,06,01,14,10.40
2016,07,06,01,15,10.40
2016,07,06,01,16,10.40
2016,07,06,01,17,10.40
2016,07,06,01,18,10.40
2016,07,06,01,19,10.40
2016,07,06,01,20,10.40
2016,07,06,01,21,10.40
2016,07,06,01,22,10.40
2016,07,06,01,23,10.40
2016,07,06,01,24,10.40
2016,07,06,01,25,10.30
2016,07,06,01,26,10.30
2016,07,06,01,27,10.30
2016,07,06,01,28,10.30
2016,07,06,01,29,10.30
2016,07,06,01,30,10.30
2016,07,06,01,31,10.30
2016,07,06,01,32,10.20
2016,07,06,01,33,10.20
2016,07,06,01,34,10.20
2016,07,06,01,35,10.20
2016,07,06,01,36,10.20
2016,07,06,01,37,10.20
2016,07,06,01,38,10.20
2016,07,06,01,39,10.20
2016,07,06,01,40,10.20
2016,07,06,01,41,10.20
2016,07,06,01,42,10.20
2016,07,06,01,43,10.20
2016,07,06,01,44,10.20
2016,07,06,01,45,10.20
2016,07,06,01,46,10.20
2016,07,06,01,47,10.10
2016,07,06,01,48,10.10
2016,07,06,01,49,10.10
2016,07,06,01,50,10.10
2016,07,06,01,51,10.10
2016,07,06,01,52,10.10
2016,07,06,01,53,10.10
2016,07,06,01,54,10.10
2016,07,06,01,55,10.10
2016,07,06,01,56,10.10
2016,07,06,01,57,10.10
2016,07,06,01,58,10.10
2016,07,06,01,59,10.10
2016,07,06,02,00,10.10
2016,07,06,02,01,10.10
2016,07,06,02,02,10.10
2016,07,06,02,03,10.10
2016,07,06,02,04,10.10
2016,07,06,02,05,10.10
2016,07,06,02,06,10.10
2016,07,06,02,07,10.10
2016,07,06,02,08,10.10
2016,07,06,02,09,10.10
2016,07,06,02,10,10.10
2016,07,06,02,11,10.20
2016,07,06,02,12,10.20
2016,07,06,02,13,10.20
2016,07,06,02,14,10.20
2016,07,06,02,15,10.20
2016,07,06,02,16,10.30
2016,07,06,02,17,10.30
2016,07,06,02,18,10.30
2016,07,06,02,19,10.30
2016,07,06,02,20,10.40
2016,07,06,02,21,10.40
2016,07,06,02,22,10.40
2016,07,06,02,23,10.40
2016,07,06,02,24,10.50
2016,07,06,02,25,10.50
2016,07,06,02,26,10.60
2016,07,06,02,27,10.60
2016,07,06,02,28,10.60
2016,07,06,02,29,10.60
2016,07,06,02,30,10.60
2016,07,06,02,31,10.60
2016,07,06,02,32,10.70
2016,07,06,02,33,10.70
2016,07,06,02,34,10.70
2016,07,06,02,35,10.70
2016,07,06,02,36,10.70
2016,07,06,02,37,10.70
2016,07,06,02,38,10.70
2016,07,06,02,39,10.70
2016,07,06,02,40,10.70
2016,07,06,02,41,10.70
2016,07,06,02,42,10.70
2016,07,06,02,43,10.70
2016,07,06,02,44,10.70
2016,07,06,02,45,10.70
2016,07,06,02,46,10.70
2016,07,06,02,47,10.70
2016,07,06,02,48,10.70
2016,07,06,02,49,10.70
2016,07,06,02,50,10.70
2016,07,06,02,51,10.80
2016,07,06,02,52,10.80
2016,07,06,02,53,10.80
2016,07,06,02,54,10.80
2016,07,06,02,55,10.70
2016,07,06,02,56,10.70
2016,07,06,02,57,10.70
2016,07,06,02,58,10.70
2016,07,06,02,59,10.70
2016,07,06,03,00,10.70
2016,07,06,03,01,10.70
2016,07,06,03,02,10.70
2016,07,06,03,03,10.70
2016,07,06,03,04,10.70
2016,07,06,03,05,10.60
2016,07,06,03,06,10.60
2016,07,06,03,07,10.60
2016,07,06,03,08,10.60
2016,07,06,03,09,10.60
2016,07,06,03,10,10.60
2016,07,06,03,11,10.60
2016,07,06,03,12,10.60
2016,07,06,03,13,10.50
2016,07,06,03,14,10.50
2016,07,06,03,15,10.50
2016,07,06,03,16,10.50
2016,07,06,03,17,10.50
2016,07,06,03,18,10.50
2016,07,06,03,19,10.50
2016,07,06,03,20,10.40
2016,07,06,03,21,10.40
2016,07,06,03,22,10.40
2016,07,06,03,23,10.40
2016,07,06,03,24,10.40
2016,07,06,03,25,10.40
2016,07,06,03,26,10.40
2016,07,06,03,27,10.30
2016,07,06,03,28,10.30
2016,07,06,03,29,10.30
2016,07,06,03,30,10.30
2016,07,06,03,31,10.30
2016,07,06,03,32,10.30
2016,07,06,03,33,10.30
2016,07,06,03,34,10.20
2016,07,06,03,35,10.20
2016,07,06,03,36,10.20
2016,07,06,03,37,10.20
2016,07,06,03,38,10.20
2016,07,06,03,39,10.20
2016,07,06,03,40,10.10
2016,07,06,03,41,10.10
2016,07,06,03,42,10.10
2016,07,06,03,43,10.10
2016,07,06,03,44,10.10
2016,07,06,03,45,10.00
2016,07,06,03,46,10.00
2016,07,06,03,47,10.00
2016,07,06,03,48,10.00
2016,07,06,03,49,10.00
2016,07,06,03,50,10.00
2016,07,06,03,51,10.00
2016,07,06,03,52,10.00
2016,07,06,03,53,10.00
2016,07,06,03,54,10.00
2016,07,06,03,55,10.00
2016,07,06,03,56,10.00
2016,07,06,03,57,10.00
2016,07,06,03,58,10.00
2016,07,06,03,59,10.00
2016,07,06,04,00,9.90
2016,07,06,04,01,9.90
2016,07,06,04,02,9.90
2016,07,06,04,03,9.90
2016,07,06,04,04,9.90
2016,07,06,04,05,9.90
2016,07,06,04,06,9.90
2016,07,06,04,07,9.90
2016,07,06,04,08,9.90
2016,07,06,04,09,9.90
2016,07,06,04,10,9.90
2016,07,06,04,11,9.90
2016,07,06,04,12,9.90
2016,07,06,04,13,9.90
2016,07,06,04,14,9.90
2016,07,06,04,15,9.80
2016,07,06,04,16,9.80
2016,07,06,04,17,9.80
2016,07,06,04,18,9.80
2016,07,06,04,19,9.80
2016,07,06,04,20,9.80
2016,07,06,04,21,9.80
2016,07,06,04,22,9.80
2016,07,06,04,23,9.80
2016,07,06,04,24,9.80
2016,07,06,04,25,9.80
2016,07,06,04,26,9.80
2016,07,06,04,27,9.80
2016,07,06,04,28,9.80
2016,07,06,04,29,9.80
2016,07,06,04,30,9.80
2016,07,06,04,31,9.80
2016,07,06,04,32,9.80
2016,07,06,04,33,9.70
2016,07,06,04,34,9.70
2016,07,06,04,35,9.70
2016,07,06,04,36,9.70
2016,07,06,04,37,9.70
2016,07,06,04,38,9.70
2016,07,06,04,39,9.70
2016,07,06,04,40,9.60
2016,07,06,04,41,9.60
2016,07,06,04,42,9.60
2016,07,06,04,43,9.60
2016,07,06,04,44,9.60
2016,07,06,04,45,9.60
2016,07,06,04,46,9.50
2016,07,06,04,47,9.50
2016,07,06,04,48,9.50
2016,07,06,04,49,9.50
2016,07,06,04,50,9.50
2016,07,06,04,51,9.40
2016,07,06,04,52,9.40
2016,07,06,04,53,9.40
2016,07,06,04,54,9.40
2016,07,06,04,55,9.40
2016,07,06,04,56,9.40
2016,07,06,04,57,9.40
2016,07,06,04,58,9.40
2016,07,06,04,59,9.40
2016,07,06,05,00,9.40
2016,07,06,05,01,9.40
2016,07,06,05,02,9.40
2016,07,06,05,03,9.40
2016,07,06,05,04,9.40
2016,07,06,05,05,9.40
2016,07,06,05,06,9.40
2016,07,06,05,07,9.40
2016,07,06,05,08,9.40
2016,07,06,05,09,9.40
2016,07,06,05,10,9.40
2016,07,06,05,11,9.40
2016,07,06,05,12,9.40
2016,07,06,05,13,9.40
2016,07,06,05,14,9.40
2016,07,06,05,15,9.40
2016,07,06,05,16,9.40
2016,07,06,05,17,9.40
2016,07,06,05,18,9.40
2016,07,06,05,19,9.40
2016,07,06,05,20,9.40
2016,07,06,05,21,9.40
2016,07,06,05,22,9.40
2016,07,06,05,23,9.40
2016,07,06,05,24,9.40
2016,07,06,05,25,9.40
2016,07,06,05,26,9.40
2016,07,06,05,27,9.40
2016,07,06,05,28,9.40
2016,07,06,05,29,9.40
2016,07,06,05,30,9.40
2016,07,06,05,31,9.40
2016,07,06,05,32,9.40
2016,07,06,05,33,9.40
2016,07,06,05,34,9.40
2016,07,06,05,35,9.40
2016,07,06,05,36,9.40
2016,07,06,05,37,9.40
2016,07,06,05,38,9.40
2016,07,06,05,39,9.40
2016,07,06,05,40,9.40
2016,07,06,05,41,9.40
2016,07,06,05,42,9.40
2016,07,06,05,43,9.40
2016,07,06,05,44,9.40
2016,07,06,05,45,9.40
2016,07,06,05,46,9.40
2016,07,06,05,47,9.40
2016,07,06,05,48,9.40
2016,07,06,05,49,9.40
2016,07,06,05,50,9.40
2016,07,06,05,51,9.30
2016,07,06,05,52,9.30
2016,07,06,05,53,9.40
2016,07,06,05,54,9.30
2016,07,06,05,55,9.30
2016,07,06,05,56,9.30
2016,07,06,05,57,9.30
2016,07,06,05,58,9.30
2016,07,06,05,59,9.30
2016,07,06,06,00,9.30
2016,07,06,06,01,9.30
2016,07,06,06,02,9.30
2016,07,06,06,03,9.30
2016,07,06,06,04,9.30
2016,07,06,06,05,9.30
2016,07,06,06,06,9.40
2016,07,06,06,07,9.40
2016,07,06,06,08,9.40
2016,07,06,06,09,9.40
2016,07,06,06,10,9.40
2016,07,06,06,11,9.40
2016,07,06,06,12,9.40
2016,07,06,06,13,9.40
2016,07,06,06,14,9.40
2016,07,06,06,15,9.40
2016,07,06,06,16,9.50
2016,07,06,06,17,9.50
2016,07,06,06,18,9.60
2016,07,06,06,19,9.60
2016,07,06,06,20,9.60
2016,07,06,06,21,9.60
2016,07,06,06,22,9.70
2016,07,06,06,23,9.70
2016,07,06,06,24,9.70
2016,07,06,06,25,9.80
2016,07,06,06,26,9.80
2016,07,06,06,27,9.90
2016,07,06,06,28,9.90
2016,07,06,06,29,10.00
2016,07,06,06,30,10.00
2016,07,06,06,31,10.10
2016,07,06,06,32,10.20
2016,07,06,06,33,10.20
2016,07,06,06,34,10.20
2016,07,06,06,35,10.30
2016,07,06,06,36,10.30
2016,07,06,06,37,10.40
2016,07,06,06,38,10.40
2016,07,06,06,39,10.40
2016,07,06,06,40,10.50
2016,07,06,06,41,10.50
2016,07,06,06,42,10.60
2016,07,06,06,43,10.60
2016,07,06,06,44,10.60
2016,07,06,06,45,10.70
2016,07,06,06,46,10.70
2016,07,06,06,47,10.80
2016,07,06,06,48,10.80
2016,07,06,06,49,10.80
2016,07,06,06,50,10.80
2016,07,06,06,51,10.90
2016,07,06,06,52,10.90
2016,07,06,06,53,10.90
2016,07,06,06,54,10.90
2016,07,06,06,55,11.00
2016,07,06,06,56,11.00
2016,07,06,06,57,11.10
2016,07,06,06,58,11.10
2016,07,06,06,59,11.10
2016,07,06,07,00,11.20
2016,07,06,07,01,11.20
2016,07,06,07,02,11.20
2016,07,06,07,03,11.20
2016,07,06,07,04,11.30
2016,07,06,07,05,11.30
2016,07,06,07,06,11.40
2016,07,06,07,07,11.40
2016,07,06,07,08,11.50
2016,07,06,07,09,11.50
2016,07,06,07,10,11.50
2016,07,06,07,11,11.60
2016,07,06,07,12,11.60
2016,07,06,07,13,11.60
2016,07,06,07,14,11.60
2016,07,06,07,15,11.70
2016,07,06,07,16,11.70
2016,07,06,07,17,11.70
2016,07,06,07,18,11.80
2016,07,06,07,19,11.80
2016,07,06,07,20,11.80
2016,07,06,07,21,11.90
2016,07,06,07,22,11.90
2016,07,06,07,23,12.00
2016,07,06,07,24,12.00
2016,07,06,07,25,12.10
2016,07,06,07,26,12.10
2016,07,06,07,27,12.20
2016,07,06,07,28,12.20
2016,07,06,07,29,12.30
2016,07,06,07,30,12.30
2016,07,06,07,31,12.40
2016,07,06,07,32,12.40
2016,07,06,07,33,12.40
2016,07,06,07,34,12.50
2016,07,06,07,35,12.50
2016,07,06,07,36,12.60
2016,07,06,07,37,12.60
2016,07,06,07,38,12.60
2016,07,06,07,39,12.60
2016,07,06,07,40,12.60
2016,07,06,07,41,12.60
2016,07,06,07,42,12.60
2016,07,06,07,43,12.70
2016,07,06,07,44,12.70
2016,07,06,07,45,12.70
2016,07,06,07,46,12.70
2016,07,06,07,47,12.70
2016,07,06,07,48,12.80
2016,07,06,07,49,12.80
2016,07,06,07,50,12.80
2016,07,06,07,51,12.80
2016,07,06,07,52,12.90
2016,07,06,07,53,12.90
2016,07,06,07,54,12.90
2016,07,06,07,55,13.00
2016,07,06,07,56,13.00
2016,07,06,07,57,13.00
2016,07,06,07,58,13.10
2016,07,06,07,59,13.10
2016,07,06,08,00,13.10
2016,07,06,08,01,13.10
2016,07,06,08,02,13.10
2016,07,06,08,03,13.10
2016,07,06,08,04,13.10
2016,07,06,08,05,13.20
2016,07,06,08,06,13.20
2016,07,06,08,07,13.20
2016,07,06,08,08,13.20
2016,07,06,08,09,13.20
2016,07,06,08,10,13.20
2016,07,06,08,11,13.20
2016,07,06,08,12,13.20
2016,07,06,08,13,13.30
2016,07,06,08,14,13.30
2016,07,06,08,15,13.30
2016,07,06,08,16,13.30
2016,07,06,08,17,13.30
2016,07,06,08,18,13.30
2016,07,06,08,19,13.40
2016,07,06,08,20,13.40
2016,07,06,08,21,13.40
2016,07,06,08,22,13.40
2016,07,06,08,23,13.50
2016,07,06,08,24,13.50
2016,07,06,08,25,13.60
2016,07,06,08,26,13.60
2016,07,06,08,27,13.60
2016,07,06,08,28,13.70
2016,07,06,08,29,13.70
2016,07,06,08,30,13.80
2016,07,06,08,31,13.80
2016,07,06,08,32,13.90
2016,07,06,08,33,13.90
2016,07,06,08,34,13.90
2016,07,06,08,35,14.00
2016,07,06,08,36,14.10
2016,07,06,08,37,14.10
2016,07,06,08,38,14.10
2016,07,06,08,39,14.10
2016,07,06,08,40,14.20
2016,07,06,08,41,14.20
2016,07,06,08,42,14.20
2016,07,06,08,43,14.20
2016,07,06,08,44,14.20
2016,07,06,08,45,14.20
2016,07,06,08,46,14.20
2016,07,06,08,47,14.20
2016,07,06,08,48,14.30
2016,07,06,08,49,14.30
2016,07,06,08,50,14.30
2016,07,06,08,51,14.40
2016,07,06,08,52,14.40
2016,07,06,08,53,14.40
2016,07,06,08,54,14.40
2016,07,06,08,55,14.50
2016,07,06,08,56,14.50
2016,07,06,08,57,14.40
2016,07,06,08,58,14.40
2016,07,06,08,59,14.50
2016,07,06,09,00,14.50
2016,07,06,09,01,14.50
2016,07,06,09,02,14.50
2016,07,06,09,03,14.50
2016,07,06,09,04,14.60
2016,07,06,09,05,14.70
2016,07,06,09,06,14.80
2016,07,06,09,07,15.00
2016,07,06,09,08,15.10
2016,07,06,09,09,15.20
2016,07,06,09,10,15.30
2016,07,06,09,11,15.40
2016,07,06,09,12,15.60
2016,07,06,09,13,15.70
2016,07,06,09,14,15.80
2016,07,06,09,15,15.90
2016,07,06,09,16,16.10
2016,07,06,09,17,16.20
2016,07,06,09,18,16.30
2016,07,06,09,19,16.40
2016,07,06,09,20,16.60
2016,07,06,09,21,16.70
2016,07,06,09,22,16.80
2016,07,06,09,23,16.90
2016,07,06,09,24,16.90
2016,07,06,09,25,17.00
2016,07,06,09,26,17.00
2016,07,06,09,27,16.90
2016,07,06,09,28,16.90
2016,07,06,09,29,16.90
2016,07,06,09,30,16.90
2016,07,06,09,31,16.90
2016,07,06,09,32,16.90
2016,07,06,09,33,16.90
2016,07,06,09,34,16.90
2016,07,06,09,35,17.00
2016,07,06,09,36,17.00
2016,07,06,09,37,17.00
2016,07,06,09,38,17.10
2016,07,06,09,39,17.10
2016,07,06,09,40,17.10
2016,07,06,09,41,17.10
2016,07,06,09,42,17.10
2016,07,06,09,43,17.10
2016,07,06,09,44,17.10
2016,07,06,09,45,17.10
2016,07,06,09,46,17.10
2016,07,06,09,47,17.10
2016,07,06,09,48,17.00
2016,07,06,09,49,17.00
2016,07,06,09,50,17.10
2016,07,06,09,51,17.10
2016,07,06,09,52,17.20
2016,07,06,09,53,17.20
2016,07,06,09,54,17.20
2016,07,06,09,55,17.20
2016,07,06,09,56,17.20
2016,07,06,09,57,17.20
2016,07,06,09,58,17.30
2016,07,06,09,59,17.30
2016,07,06,10,00,17.40
2016,07,06,10,01,17.40
2016,07,06,10,02,17.50
2016,07,06,10,03,17.50
2016,07,06,10,04,17.60
2016,07,06,10,05,17.60
2016,07,06,10,06,17.60
2016,07,06,10,07,17.60
2016,07,06,10,08,17.60
2016,07,06,10,09,17.60
2016,07,06,10,10,17.60
2016,07,06,10,11,17.60
2016,07,06,10,12,17.70
2016,07,06,10,13,17.70
2016,07,06,10,14,17.70
2016,07,06,10,15,17.80
2016,07,06,10,16,17.80
2016,07,06,10,17,17.80
2016,07,06,10,18,17.80
2016,07,06,10,19,17.90
2016,07,06,10,20,17.90
2016,07,06,10,21,17.90
2016,07,06,10,22,17.90
2016,07,06,10,23,17.90
2016,07,06,10,24,18.00
2016,07,06,10,25,18.00
2016,07,06,10,26,18.10
2016,07,06,10,27,18.00
2016,07,06,10,28,18.00
2016,07,06,10,29,18.00
2016,07,06,10,30,18.00
2016,07,06,10,31,18.00
2016,07,06,10,32,18.00
2016,07,06,10,33,18.00
2016,07,06,10,34,18.00
2016,07,06,10,35,18.00
2016,07,06,10,36,18.00
2016,07,06,10,37,18.00
2016,07,06,10,38,18.10
2016,07,06,10,39,18.20
2016,07,06,10,40,18.20
2016,07,06,10,41,18.30
2016,07,06,10,42,18.30
2016,07,06,10,43,18.40
2016,07,06,10,44,18.40
2016,07,06,10,45,18.40
2016,07,06,10,46,18.40
2016,07,06,10,47,18.40
2016,07,06,10,48,18.50
2016,07,06,10,49,18.50
2016,07,06,10,50,18.60
2016,07,06,10,51,18.70
2016,07,06,10,52,18.80
2016,07,06,10,53,18.80
2016,07,06,10,54,18.90
2016,07,06,10,55,19.00
2016,07,06,10,56,19.10
2016,07,06,10,57,19.10
2016,07,06,10,58,19.20
2016,07,06,10,59,19.20
2016,07,06,11,00,19.20
2016,07,06,11,01,19.30
2016,07,06,11,02,19.30
2016,07,06,11,03,19.30
2016,07,06,11,04,19.30
2016,07,06,11,05,19.40
2016,07,06,11,06,19.40
2016,07,06,11,07,19.40
2016,07,06,11,08,19.50
2016,07,06,11,09,19.50
2016,07,06,11,10,19.50
2016,07,06,11,11,19.50
2016,07,06,11,12,19.50
2016,07,06,11,13,19.40
2016,07,06,11,14,19.40
2016,07,06,11,15,19.40
2016,07,06,11,16,19.40
2016,07,06,11,17,19.40
2016,07,06,11,18,19.30
2016,07,06,11,19,19.30
2016,07,06,11,20,19.30
2016,07,06,11,21,19.30
2016,07,06,11,22,19.30
2016,07,06,11,23,19.30
2016,07,06,11,24,19.30
2016,07,06,11,25,19.40
2016,07,06,11,26,19.40
2016,07,06,11,27,19.40
2016,07,06,11,28,19.40
2016,07,06,11,29,19.40
2016,07,06,11,30,19.40
2016,07,06,11,31,19.40
2016,07,06,11,32,19.40
2016,07,06,11,33,19.30
2016,07,06,11,34,19.30
2016,07,06,11,35,19.30
2016,07,06,11,36,19.30
2016,07,06,11,37,19.20
2016,07,06,11,38,19.20
2016,07,06,11,39,19.20
2016,07,06,11,40,19.20
2016,07,06,11,41,19.10
2016,07,06,11,42,19.10
2016,07,06,11,43,19.10
2016,07,06,11,44,19.10
2016,07,06,11,45,19.00
2016,07,06,11,46,18.90
2016,07,06,11,47,18.90
2016,07,06,11,48,18.90
2016,07,06,11,49,18.90
2016,07,06,11,50,19.00
2016,07,06,11,51,19.10
2016,07,06,11,52,19.10
2016,07,06,11,53,19.20
2016,07,06,11,54,19.30
2016,07,06,11,55,19.30
2016,07,06,11,56,19.40
2016,07,06,11,57,19.40
2016,07,06,11,58,19.40
2016,07,06,11,59,19.50
2016,07,06,12,00,19.50
2016,07,06,12,01,19.60
2016,07,06,12,02,19.70
2016,07,06,12,03,19.70
2016,07,06,12,04,19.80
2016,07,06,12,05,19.80
2016,07,06,12,06,19.80
2016,07,06,12,07,19.80
2016,07,06,12,08,19.80
2016,07,06,12,09,19.80
2016,07,06,12,10,19.80
2016,07,06,12,11,19.80
2016,07,06,12,12,19.80
2016,07,06,12,13,19.80
2016,07,06,12,14,19.60
2016,07,06,12,15,19.50
2016,07,06,12,16,19.40
2016,07,06,12,17,19.30
2016,07,06,12,18,19.30
2016,07,06,12,19,19.30
2016,07,06,12,20,19.40
2016,07,06,12,21,19.50
2016,07,06,12,22,19.60
2016,07,06,12,23,19.70
2016,07,06,12,24,19.80
2016,07,06,12,25,19.80
2016,07,06,12,26,19.80
2016,07,06,12,27,19.90
2016,07,06,12,28,19.90
2016,07,06,12,29,19.90
2016,07,06,12,30,20.00
2016,07,06,12,31,20.10
2016,07,06,12,32,20.20
2016,07,06,12,33,20.30
2016,07,06,12,34,20.30
2016,07,06,12,35,20.40
2016,07,06,12,36,20.40
2016,07,06,12,37,20.30
2016,07,06,12,38,20.20
2016,07,06,12,39,20.10
2016,07,06,12,40,20.10
2016,07,06,12,41,20.10
2016,07,06,12,42,20.10
2016,07,06,12,43,20.10
2016,07,06,12,44,20.20
2016,07,06,12,45,20.20
2016,07,06,12,46,20.30
2016,07,06,12,47,20.30
2016,07,06,12,48,20.30
2016,07,06,12,49,20.20
2016,07,06,12,50,20.10
2016,07,06,12,51,20.00
2016,07,06,12,52,19.90
2016,07,06,12,53,19.90
2016,07,06,12,54,19.90
2016,07,06,12,55,19.90
2016,07,06,12,56,19.80
2016,07,06,12,57,19.80
2016,07,06,12,58,19.80
2016,07,06,12,59,19.70
2016,07,06,13,00,19.80
2016,07,06,13,01,19.80
2016,07,06,13,02,19.80
2016,07,06,13,03,19.90
2016,07,06,13,04,20.00
2016,07,06,13,05,20.00
2016,07,06,13,06,20.00
2016,07,06,13,07,20.00
2016,07,06,13,08,20.00
2016,07,06,13,09,20.10
2016,07,06,13,10,20.10
2016,07,06,13,11,20.10
2016,07,06,13,12,20.20
2016,07,06,13,13,20.20
2016,07,06,13,14,20.20
2016,07,06,13,15,20.20
2016,07,06,13,16,20.20
2016,07,06,13,17,20.20
2016,07,06,13,18,20.10
2016,07,06,13,19,20.10
2016,07,06,13,20,20.10
2016,07,06,13,21,20.20
2016,07,06,13,22,20.20
2016,07,06,13,23,20.20
2016,07,06,13,24,20.30
2016,07,06,13,25,20.40
2016,07,06,13,26,20.50
2016,07,06,13,27,20.60
2016,07,06,13,28,20.70
2016,07,06,13,29,20.80
2016,07,06,13,30,20.80
2016,07,06,13,31,20.80
2016,07,06,13,32,20.80
2016,07,06,13,33,20.80
2016,07,06,13,34,20.80
2016,07,06,13,35,20.90
2016,07,06,13,36,21.00
2016,07,06,13,37,21.10
2016,07,06,13,38,21.10
2016,07,06,13,39,21.20
2016,07,06,13,40,21.20
2016,07,06,13,41,21.20
2016,07,06,13,42,21.20
2016,07,06,13,43,21.20
2016,07,06,13,44,21.20
2016,07,06,13,45,21.20
2016,07,06,13,46,21.30
2016,07,06,13,47,21.30
2016,07,06,13,48,21.40
2016,07,06,13,49,21.40
2016,07,06,13,50,21.40
2016,07,06,13,51,21.40
2016,07,06,13,52,21.40
2016,07,06,13,53,21.40
2016,07,06,13,54,21.40
2016,07,06,13,55,21.30
2016,07,06,13,56,21.30
2016,07,06,13,57,21.20
2016,07,06,13,58,21.20
2016,07,06,13,59,21.20
2016,07,06,14,00,21.20
2016,07,06,14,01,21.20
2016,07,06,14,02,21.20
2016,07,06,14,03,21.20
2016,07,06,14,04,21.20
2016,07,06,14,05,21.20
2016,07,06,14,06,21.20
2016,07,06,14,07,21.20
2016,07,06,14,08,21.20
2016,07,06,14,09,21.20
2016,07,06,14,10,21.20
2016,07,06,14,11,21.20
2016,07,06,14,12,21.30
2016,07,06,14,13,21.30
2016,07,06,14,14,21.40
2016,07,06,14,15,21.50
2016,07,06,14,16,21.60
2016,07,06,14,17,21.70
2016,07,06,14,18,21.70
2016,07,06,14,19,21.70
2016,07,06,14,20,21.80
2016,07,06,14,21,21.80
2016,07,06,14,22,21.90
2016,07,06,14,23,21.90
2016,07,06,14,24,21.90
2016,07,06,14,25,21.90
2016,07,06,14,26,22.00
2016,07,06,14,27,22.00
2016,07,06,14,28,22.00
2016,07,06,14,29,22.10
2016,07,06,14,30,22.00
2016,07,06,14,31,22.10
2016,07,06,14,32,22.00
2016,07,06,14,33,21.90
2016,07,06,14,34,21.80
2016,07,06,14,35,21.70
2016,07,06,14,36,21.60
2016,07,06,14,37,21.60
2016,07,06,14,38,21.60
2016,07,06,14,39,21.60
2016,07,06,14,40,21.70
2016,07,06,14,41,21.70
2016,07,06,14,42,21.80
2016,07,06,14,43,21.80
2016,07,06,14,44,21.90
2016,07,06,14,45,22.00
2016,07,06,14,46,22.10
2016,07,06,14,47,22.10
2016,07,06,14,48,22.10
2016,07,06,14,49,22.00
2016,07,06,14,50,21.90
2016,07,06,14,51,21.90
2016,07,06,14,52,21.90
2016,07,06,14,53,21.90
2016,07,06,14,54,22.00
2016,07,06,14,55,22.10
2016,07,06,14,56,22.10
2016,07,06,14,57,22.20
2016,07,06,14,58,22.30
2016,07,06,14,59,22.30
2016,07,06,15,00,22.40
2016,07,06,15,01,22.50
2016,07,06,15,02,22.60
2016,07,06,15,03,22.70
2016,07,06,15,04,22.70
2016,07,06,15,05,22.80
2016,07,06,15,06,22.80
2016,07,06,15,07,22.80
2016,07,06,15,08,22.80
2016,07,06,15,09,22.80
2016,07,06,15,10,22.80
2016,07,06,15,11,22.80
2016,07,06,15,12,22.80
2016,07,06,15,13,22.80
2016,07,06,15,14,22.80
2016,07,06,15,15,22.80
2016,07,06,15,16,22.70
2016,07,06,15,17,22.70
2016,07,06,15,18,22.60
2016,07,06,15,19,22.60
2016,07,06,15,20,22.60
2016,07,06,15,21,22.60
2016,07,06,15,22,22.60
2016,07,06,15,23,22.70
2016,07,06,15,24,22.70
2016,07,06,15,25,22.80
2016,07,06,15,26,22.80
2016,07,06,15,27,22.90
2016,07,06,15,28,22.90
2016,07,06,15,29,22.90
2016,07,06,15,30,22.90
2016,07,06,15,31,22.80
2016,07,06,15,32,22.70
2016,07,06,15,33,22.60
2016,07,06,15,34,22.50
2016,07,06,15,35,22.50
2016,07,06,15,36,22.50
2016,07,06,15,37,22.60
2016,07,06,15,38,22.60
2016,07,06,15,39,22.70
2016,07,06,15,40,22.70
2016,07,06,15,41,22.80
2016,07,06,15,42,22.80
2016,07,06,15,43,22.80
2016,07,06,15,44,22.80
2016,07,06,15,45,22.80
2016,07,06,15,46,22.80
2016,07,06,15,47,22.80
2016,07,06,15,48,22.80
2016,07,06,15,49,22.80
2016,07,06,15,50,22.80
2016,07,06,15,51,22.80
2016,07,06,15,52,22.90
2016,07,06,15,53,22.90
2016,07,06,15,54,22.90
2016,07,06,15,55,22.90
2016,07,06,15,56,22.90
2016,07,06,15,57,22.90
2016,07,06,15,58,22.90
2016,07,06,15,59,22.80
2016,07,06,16,00,22.80
2016,07,06,16,01,22.90
2016,07,06,16,02,23.00
2016,07,06,16,03,23.00
2016,07,06,16,04,23.10
2016,07,06,16,05,23.10
2016,07,06,16,06,23.00
2016,07,06,16,07,23.10
2016,07,06,16,08,23.10
2016,07,06,16,09,23.10
2016,07,06,16,10,23.10
2016,07,06,16,11,23.10
2016,07,06,16,12,23.20
2016,07,06,16,13,23.20
2016,07,06,16,14,23.20
2016,07,06,16,15,23.20
2016,07,06,16,16,23.10
2016,07,06,16,17,23.00
2016,07,06,16,18,23.00
2016,07,06,16,19,22.90
2016,07,06,16,20,22.90
2016,07,06,16,21,22.90
2016,07,06,16,22,22.80
2016,07,06,16,23,22.80
2016,07,06,16,24,22.70
2016,07,06,16,25,22.70
2016,07,06,16,26,22.70
2016,07,06,16,27,22.70
2016,07,06,16,28,22.80
2016,07,06,16,29,22.80
2016,07,06,16,30,22.90
2016,07,06,16,31,23.00
2016,07,06,16,32,23.10
2016,07,06,16,33,23.20
2016,07,06,16,34,23.30
2016,07,06,16,35,23.30
2016,07,06,16,36,23.40
2016,07,06,16,37,23.40
2016,07,06,16,38,23.40
2016,07,06,16,39,23.20
2016,07,06,16,40,23.00
2016,07,06,16,41,22.80
2016,07,06,16,42,22.70
2016,07,06,16,43,22.60
2016,07,06,16,44,22.50
2016,07,06,16,45,22.50
2016,07,06,16,46,22.40
2016,07,06,16,47,22.40
2016,07,06,16,48,22.40
2016,07,06,16,49,22.40
2016,07,06,16,50,22.50
2016,07,06,16,51,22.50
2016,07,06,16,52,22.60
2016,07,06,16,53,22.60
2016,07,06,16,54,22.70
2016,07,06,16,55,22.80
2016,07,06,16,56,22.90
2016,07,06,16,57,23.00
2016,07,06,16,58,23.10
2016,07,06,16,59,23.10
2016,07,06,17,00,23.10
2016,07,06,17,01,23.10
2016,07,06,17,02,23.10
2016,07,06,17,03,23.10
2016,07,06,17,04,23.20
2016,07,06,17,05,23.20
2016,07,06,17,06,23.20
2016,07,06,17,07,23.20
2016,07,06,17,08,23.20
2016,07,06,17,09,23.20
2016,07,06,17,10,23.20
2016,07,06,17,11,23.20
2016,07,06,17,12,23.00
2016,07,06,17,13,22.90
2016,07,06,17,14,22.80
2016,07,06,17,15,22.80
2016,07,06,17,16,22.80
2016,07,06,17,17,22.70
2016,07,06,17,18,22.80
2016,07,06,17,19,22.80
2016,07,06,17,20,22.80
2016,07,06,17,21,22.80
2016,07,06,17,22,22.80
2016,07,06,17,23,22.80
2016,07,06,17,24,22.80
2016,07,06,17,25,22.80